Date String (YYYY-MM-DD hh:mm:ss) UTC,Instrument flags,Ambient pressure (hPa),Sample flow (lpm),Bypass flow (lpm),Sample temperature (°C),Ambient temperature (°C),ASC tube jacket temperature (°C),LED temperature (°C),Box temperature (°C),Sample RH (%),Span deviation,Mass concentration (μg/m³),Mass concentration (μg/m³),Mass concentration (μg/m³)
DateTimeUTC,F1_M11,P_M11,Q1_M11,Q2_M11,T1_M11,T2_M11,T3_M11,T4_M11,T5_M11,U1_M11,ZSPAN_M11,X0_M11,X2_M11,X1_M11
2023-02-02 15:00:00,,0831.2,5.00,0.00,22.4,21.0,00.0,31.3,24.1,09.4,0000.0,0002.01,0001.07,0000.74
2023-02-02 15:01:00,,0831.2,5.01,0.00,22.4,21.0,00.0,31.3,24.1,09.4,0000.0,0001.97,0001.08,0000.76
2023-02-02 15:02:00,,0831.2,5.01,0.00,22.4,21.0,00.0,31.3,24.1,09.5,0000.0,0002.02,0001.14,0000.79
2023-02-02 15:03:00,,0831.2,5.02,0.00,22.4,20.9,00.0,31.3,24.1,09.5,0000.0,0001.99,0001.18,0000.84
2023-02-02 15:04:00,,0831.2,5.01,0.00,22.4,20.9,00.0,31.3,24.1,09.5,0000.0,0002.13,0001.27,0000.90
2023-02-02 15:05:00,,0831.2,5.02,0.00,22.4,20.9,00.0,31.3,24.1,09.5,0000.0,0002.21,0001.34,0000.97
2023-02-02 15:06:00,,0831.2,5.01,0.00,22.4,20.9,00.0,31.3,24.1,09.5,0000.0,0002.23,0001.39,0001.03
2023-02-02 15:07:00,,0831.2,5.00,0.00,22.3,20.9,00.0,31.3,24.1,09.5,0000.0,0002.22,0001.43,0001.08
2023-02-02 15:08:00,,0831.3,4.98,0.00,22.3,20.9,00.0,31.2,24.1,09.5,0000.0,0002.16,0001.45,0001.12
2023-02-02 15:09:00,,0831.3,5.01,0.00,22.3,20.9,00.0,31.2,24.1,09.5,0000.0,0002.49,0001.49,0001.16
2023-02-02 15:10:00,,0831.3,5.00,0.00,22.3,20.9,00.0,31.2,24.0,09.5,0000.0,0003.30,0001.56,0001.20
2023-02-02 15:11:00,,0831.4,5.00,0.00,22.3,20.9,00.0,31.2,24.0,09.4,0000.0,0003.49,0001.55,0001.20
2023-02-02 15:12:00,,0831.5,5.00,0.00,22.4,21.6,00.0,31.2,24.2,09.4,0000.0,0003.48,0001.54,0001.19
2023-02-02 15:13:00,,0831.5,5.01,0.00,22.5,22.9,00.0,31.2,24.5,09.4,0000.0,0003.39,0001.49,0001.18
2023-02-02 15:14:00,,0831.5,5.00,0.00,22.6,23.3,00.0,31.2,24.7,09.3,0000.0,0003.33,0001.45,0001.15
2023-02-02 15:15:00,,0831.5,5.00,0.00,22.7,22.8,00.0,31.3,24.6,09.3,0000.0,0003.26,0001.39,0001.09
2023-02-02 15:16:00,,0831.5,5.00,0.00,22.7,22.5,00.0,31.3,24.5,09.2,0000.0,0003.29,0001.38,0001.04
2023-02-02 15:17:00,,0831.6,5.01,0.00,22.7,22.2,00.0,31.4,24.5,09.2,0000.0,0003.21,0001.32,0000.99
2023-02-02 15:18:00,,0831.5,4.99,0.00,22.7,21.9,00.0,31.4,24.5,09.2,0000.0,0003.16,0001.26,0000.95
2023-02-02 15:19:00,,0831.5,4.99,0.00,22.7,21.8,00.0,31.4,24.5,09.2,0000.0,0002.98,0001.20,0000.91
2023-02-02 15:20:00,,0831.5,5.00,0.00,22.7,21.7,00.0,31.4,24.5,09.2,0000.0,0002.67,0001.16,0000.87
2023-02-02 15:21:00,,0831.5,4.97,0.00,22.7,21.7,00.0,31.4,24.5,09.1,0000.0,0001.99,0001.12,0000.85
2023-02-02 15:22:00,,0831.5,4.98,0.00,22.7,21.6,00.0,31.4,24.5,09.1,0000.0,0001.68,0001.08,0000.83
2023-02-02 15:23:00,,0831.5,4.99,0.00,22.7,21.5,00.0,31.5,24.5,09.1,0000.0,0001.61,0001.04,0000.82
2023-02-02 15:24:00,,0831.6,5.01,0.00,22.7,21.5,00.0,31.5,24.5,09.1,0000.0,0001.66,0001.04,0000.80
2023-02-02 15:25:00,,0831.6,5.00,0.00,22.7,21.4,00.0,31.5,24.5,09.0,0000.0,0001.80,0001.06,0000.78
2023-02-02 15:26:00,,0831.6,4.99,0.00,22.7,21.4,00.0,31.5,24.5,09.0,0000.0,0001.88,0001.05,0000.78
2023-02-02 15:27:00,,0831.7,5.03,0.00,22.7,21.4,00.0,31.5,24.5,09.0,0000.0,0001.80,0001.02,0000.78
2023-02-02 15:28:00,,0831.7,4.99,0.00,22.7,21.4,00.0,31.5,24.5,09.0,0000.0,0001.86,0001.01,0000.77
2023-02-02 15:29:00,,0831.7,5.01,0.00,22.7,21.4,00.0,31.5,24.5,09.0,0000.0,0002.00,0001.03,0000.77
2023-02-02 15:30:00,,0831.7,4.97,0.00,22.7,21.5,00.0,31.5,24.5,09.0,0000.0,0002.11,0001.07,0000.76
2023-02-02 15:31:00,,0831.7,5.00,0.00,22.7,21.5,00.0,31.5,24.5,09.0,0000.0,0002.18,0001.10,0000.77
2023-02-02 15:32:00,,0831.7,5.00,0.00,22.7,21.5,00.0,31.5,24.5,09.0,0000.0,0002.09,0001.09,0000.76
2023-02-02 15:33:00,,0831.6,4.99,0.00,22.7,21.5,00.0,31.5,24.5,09.2,0000.0,0002.16,0001.11,0000.77
2023-02-02 15:34:00,,0831.5,5.00,0.00,22.7,21.5,00.0,31.5,24.5,09.3,0000.0,0002.23,0001.15,0000.77
2023-02-02 15:35:00,,0831.5,5.00,0.00,22.7,21.5,00.0,31.5,24.5,09.5,0000.0,0002.29,0001.17,0000.79
2023-02-02 15:36:00,,0831.6,4.95,0.00,22.7,21.5,00.0,31.5,24.5,09.3,0000.0,0002.24,0001.17,0000.79
2023-02-02 15:37:00,,0831.6,4.97,0.00,22.7,21.5,00.0,31.5,24.5,09.5,0000.0,0002.07,0001.16,0000.80
2023-02-02 15:38:00,,0831.6,5.02,0.00,22.7,21.5,00.0,31.5,24.5,09.7,0000.0,0002.16,0001.17,0000.79
2023-02-02 15:39:00,,0831.6,5.01,0.00,22.7,21.6,00.0,31.5,24.5,09.3,0000.0,0002.14,0001.15,0000.78
2023-02-02 15:40:00,,0831.7,5.02,0.00,22.8,21.6,00.0,31.5,24.5,09.2,0000.0,0001.98,0001.12,0000.77
2023-02-02 15:41:00,,0831.7,4.97,0.00,22.8,21.6,00.0,31.5,24.6,09.1,0000.0,0001.89,0001.10,0000.77
2023-02-02 15:42:00,,0831.7,5.01,0.00,22.8,21.6,00.0,31.6,24.6,09.3,0000.0,0001.83,0001.07,0000.76
2023-02-02 15:43:00,,0831.7,5.00,0.00,22.8,21.6,00.0,31.6,24.6,09.4,0000.0,0001.87,0001.08,0000.77
2023-02-02 15:44:00,,0831.7,4.99,0.00,22.8,21.6,00.0,31.6,24.6,09.1,0000.0,0001.81,0001.06,0000.76
2023-02-02 15:45:00,,0831.7,5.02,0.00,22.8,21.6,00.0,31.6,24.6,09.0,0000.0,0001.79,0001.05,0000.76
2023-02-02 15:46:00,,0831.7,4.97,0.00,22.8,21.6,00.0,31.6,24.6,08.9,0000.0,0001.73,0001.03,0000.75
2023-02-02 15:47:00,,0831.7,4.98,0.00,22.8,21.6,00.0,31.6,24.6,09.0,0000.0,0001.69,0001.00,0000.74
2023-02-02 15:48:00,,0831.7,5.01,0.00,22.8,21.6,00.0,31.6,24.6,09.2,0000.0,0001.67,0000.99,0000.73
2023-02-02 15:49:00,,0831.7,5.02,0.00,22.8,21.6,00.0,31.6,24.5,09.3,0000.0,0001.63,0000.97,0000.72
2023-02-02 15:50:00,,0831.8,4.99,0.00,22.8,21.6,00.0,31.6,24.6,09.3,0000.0,0001.52,0000.96,0000.73
2023-02-02 15:51:00,,0831.7,5.02,0.00,22.8,21.6,00.0,31.6,24.6,09.2,0000.0,0001.65,0001.01,0000.74
2023-02-02 15:52:00,,0831.7,4.96,0.00,22.8,21.6,00.0,31.6,24.6,09.2,0000.0,0001.68,0001.01,0000.74
2023-02-02 15:53:00,,0831.7,5.00,0.00,22.8,21.6,00.0,31.6,24.6,09.0,0000.0,0001.72,0001.03,0000.74
2023-02-02 15:54:00,,0831.7,5.00,0.00,22.9,21.6,00.0,31.6,24.6,09.0,0000.0,0001.63,0001.01,0000.74
2023-02-02 15:55:00,,0831.7,5.02,0.00,22.9,21.6,00.0,31.6,24.6,09.0,0000.0,0001.75,0001.05,0000.74
2023-02-02 15:56:00,,0831.7,5.01,0.00,22.9,21.6,00.0,31.6,24.6,09.0,0000.0,0001.85,0001.06,0000.74
2023-02-02 15:57:00,,0831.8,5.00,0.00,22.9,21.6,00.0,31.6,24.6,09.1,0000.0,0001.95,0001.08,0000.74
2023-02-02 15:58:00,,0831.8,4.97,0.00,22.9,21.6,00.0,31.6,24.6,09.5,0000.0,0002.00,0001.11,0000.76
2023-02-02 15:59:00,,0831.8,5.00,0.00,22.9,21.6,00.0,31.7,24.6,10.5,0000.0,0002.11,0001.17,0000.81
